sat.trackr.live / text

‹ back to catalog

STARLINK-6115

NORAD 56123 · 2023-046AH

PAYLOAD ACTIVE UNKNOWN

§ Identity

Operator
Country
US
Launch date
2023-03-29
Launch site
AFETR
Launch vehicle
Mass (kg)
RCS (m²)

Purposes: comms

External: N2YO · Heavens-Above · Gunter

§ Orbital elements

Epoch: 2026-05-25T04:29:21.223680Z

Period
94.27 min
Inclination
43.0054°
Eccentricity
0.0000655
Mean motion
15.27590472 rev/d
Perigee alt
482.6 km
Apogee alt
483.5 km
Semi-major
6,861.2 km
B*
-1.0512e-4
RAAN
75.4645°
Arg perigee
240.8166°
Mean anomaly
119.2620°
Rev number
17,389

§ Raw data

STARLINK-61151 56123U 23046AH  26145.18705120 -.00003154  00000+0 -10512-3 0  99902 56123  43.0054  75.4645 0000655 240.8166 119.2620 15.27590472173890

JSON: /api/v1/satellites/56123 · /tle

For live sub-satellite position, see the globe view (requires WebGL).

§ Visibility from observer

Set your observer location to see the next 7 days of passes ≥ 10°. The values pass through the URL so the page stays shareable.

No JS? Fill the form by hand. The geolocation button needs JavaScript.